Погода в Красной Поляне

Россия / Красноярский край     55°57′02″N   90°39′47″E
темп.,
°C
ветер,
м/с
пор.,
м/с
влажн.,
%
обл.,
%
осадки,
мм/ч
давл.,
гПа
погр.,
м
23 июня, ср
ср2301:00+11зсз1191100 0.3 100910
04:00+11зсз1185100 0.0 100915
07:00+12ююз0186100 0.0 101075
10:00+14з1271100 0.3 1010461
13:00+15юз3466100 0.6 10111012
16:00+15зюз357374 0.8 1011730
19:00+13з358098 1.3 1012580
22:00+11зюз239094 0.2 101389
24 июня, чт
чт2401:00+8зюз119556 0.2 101311
04:00+6ююз11940 0.0 101210
07:00+10в22880 0.0 1011187
10:00+15в33691 0.0 1008838
13:00+18вюв23565 0.0 10071323
16:00+20всв0350100 0.0 10051450
19:00+19сз2468100 0.0 1004188
22:00+14сз3484100 0.6 100469
25 июня, пт
пт2501:00+12ссз2697100 3.8 1005200
04:00+11з1399100 1.3 1005159
07:00+10з61297100 3.1 1006501
10:00+14з5679100 0.3 1006979
13:00+16зюз346639 0.5 10061179
16:00+17зюз3466100 0.6 10061091
19:00+14з1388100 2.6 1007148
22:00+11з3595100 1.8 1008108
26 июня, сб
сб2601:00+10юз3795100 1.9 1009265
04:00+10юз4993100 0.0 1009408
07:00+11юз3892100 0.1 1010708
10:00+11юз589095 0.4 1010777
13:00+12юз61088100 1.0 1010845
16:00+12зюз61085100 0.3 1010925
19:00+11зюз61090100 0.4 1010787
22:00+10зюз51297100 1.9 1011611
27 июня, вс
вс2701:00+9юз51395100 5.1 1011530
04:00+10зюз61395100 0.9 1011545
07:00+10зюз4109696 1.6 1013507
10:00+11зюз41095100 1.9 1014495
13:00+16з567396 2.9 10131224
16:00+17зюз576125 0.6 10121749
19:00+16юз357431 0.6 1012342
22:00+11юз228540 0.2 101221